Location: Belvedere Heights
(33.9836°N, 117.3109°W)
Time: 14:27:39
(UTC+00:00)

Atlas Centaur 2 - Pass Details

Date: 06 December 2023
Orbit: 458 x 1281 km, 30.4° (Epoch: 25 February)

Event Time Altitude Azimuth Distance (km) Brightness Sun altitude
Exits shadow 13:08:09 12° 208° (SSW) 1,474 3.4 -18.7°
Maximum altitude 13:10:35 22° 160° (SSE) 1,066 3.2 -18.2°
Drops below altitude 10° 13:13:31 10° 108° (ESE) 1,669 5.1 -17.6°
Sets 13:16:11 0° 92° (E) 2,642 6.4 -17.1°
